Probability
0 0 0 0 0 0 0 0 0 0 0 0 0 0 0 0 0 0 0 0 0 0 0 0 0 0 0 1 1 1 0 0 1 1 0 0 0 0 0 0 0 0 0
0 0 0 0 0 0 0 0 0 0 0 0 0 0 0 0 0 0 0 0 0 0 0 0 0 0 0 1 2 1 0 0 1 1 0 0 0 0 0 0 0 0 0
0 0 0 0 0 0 0 0 0 0 0 0 0 0 0 0 0 0 0 0 0 0 0 0 0 0 0 1 1 1 0 0 1 1 0 0 0 0 0 0 0 0 0
0 0 0 0 0 0 0 0 0 0 0 0 0 0 0 0 0 0 0 0 0 0 0 0 0 0 0 0 0 0 0 0 0 0 1 1 0 0 0 0 0 0 0
0 0 0 0 0 0 0 0 0 0 0 0 0 0 0 0 0 0 0 0 0 0 0 0 0 0 0 0 0 0 0 0 0 1 2 2 1 0 0 0 0 0 0
0 0 0 0 0 0 0 0 0 0 0 0 0 0 0 0 0 0 0 0 0 0 0 0 0 0 0 0 0 0 0 0 0 1 2 3 1 0 0 0 0 0 0
1 1 0 0 0 0 0 0 0 0 0 0 0 0 0 0 0 0 0 0 0 0 0 0 0 0 0 0 0 0 0 0 0 1 2 3 2 1 1 1 0 0 0
2 2 1 0 0 0 0 0 0 0 0 0 0 0 0 0 0 0 0 0 0 0 0 0 0 0 0 0 0 0 0 0 0 1 2 3 3 2 2 1 1 1 1
3 3 1 0 0 0 0 0 0 0 0 0 0 0 0 0 0 0 0 0 0 0 0 0 0 0 0 0 0 0 0 0 0 1 2 3 3 3 2 1 1 1 2
2 2 1 0 0 0 0 0 0 0 0 0 0 0 0 0 0 0 0 0 0 0 0 0 0 0 0 0 0 0 0 0 0 0 1 2 3 3 2 1 0 1 1
1 1 1 0 0 0 0 0 0 0 0 0 0 0 0 0 0 0 0 0 0 0 0 0 0 0 0 0 0 0 0 0 0 0 0 1 2 2 2 1 1 1 2
0 0 0 0 0 0 0 0 0 0 0 0 0 0 0 0 0 0 0 0 0 0 0 0 0 0 0 0 0 0 0 0 0 0 0 0 1 1 1 1 1 1 2
0 0 0 0 0 0 0 0 0 0 0 0 0 0 0 0 0 0 0 0 0 0 0 0 0 0 0 0 0 0 0 0 0 0 0 0 0 0 0 0 0 1 1
0 0 0 0 0 0 0 0 0 0 0 0 0 0 0 0 0 0 0 0 0 0 0 0 0 0 0 0 0 0 0 0 0 0 0 0 0 0 0 0 0 0 0
1 0 0 0 0 0 0 0 0 0 0 0 0 0 0 0 0 0 0 0 0 0 0 0 0 0 0 0 0 0 0 0 0 0 0 0 0 0 0 0 0 0 0
2 1 0 0 0 0 0 0 0 0 0 0 0 0 0 0 0 0 0 0 0 0 0 0 0 0 0 0 0 0 0 0 0 0 0 0 0 0 0 0 0 0 0
3 2 1 0 0 0 0 0 0 0 0 0 0 0 0 0 0 0 0 0 0 0 0 0 0 0 0 0 0 0 0 0 0 0 0 0 0 0 0 0 0 0 0
3 3 2 0 0 0 0 0 0 0 0 0 0 0 0 0 0 0 0 0 0 0 0 0 0 0 0 0 0 0 0 0 0 0 0 0 0 0 0 0 0 0 0
1 2 1 0 0 0 0 0 0 0 0 0 0 0 0 0 0 0 0 0 0 0 0 0 0 0 0 0 0 0 0 0 0 0 0 0 0 0 0 0 0 0 0
0 0 0 0 0 0 0 0 0 0 0 0 0 0 0 0 0 0 0 0 0 0 0 0 0 0 0 0 0 0 0 0 0 0 0 0 0 0 0 0 0 0 0
0 0 0 0 0 0 0 0 0 0 0 0 0 0 0 0 0 0 0 0 0 0 0 0 0 0 0 0 0 0 0 0 0 0 0 0 0 0 0 0 0 0 0
0 0 0 0 0 0 0 0 0 0 0 0 0 0 0 0 0 0 0 0 0 0 0 0 0 0 0 0 0 0 0 0 0 0 0 0 0 0 0 0 0 0 0
0 0 0 0 0 0 0 0 0 0 0 0 0 0 0 0 0 0 0 0 0 0 0 0 0 0 0 0 0 0 0 0 0 0 0 0 0 0 0 0 0 0 0
0 0 0 0 0 0 0 0 0 0 0 0 0 0 0 0 0 0 0 0 0 0 0 0 0 0 0 0 0 0 0 0 0 0 0 0 0 0 0 0 0 0 0
0 0 0 0 0 0 0 0 0 0 0 0 0 0 0 0 0 0 0 0 0 0 0 0 0 0 0 0 0 0 0 0 0 0 0 0 0 0 0 0 0 0 0
0 0 0 0 0 0 0 0 0 0 0 0 0 0 0 0 0 0 0 0 0 0 0 0 0 0 0 0 0 0 0 0 0 0 0 0 0 0 0 0 0 0 0
Wind_Speed
1 1 1 1 1 0 1 1 1 1 2 2 2 2 2 2 2 2 1 3 4 5 7 8 8 8 8 8 8 8 8 8 8 8 8 8 8 9 9 9 9 8 8
1 1 1 1 1 1 1 1 2 1 1 1 2 3 3 2 2 3 2 3 4 4 6 8 8 9 9 9 9 9 8 8 8 8 8 8 8 9 9 9 9 9 9
2 1 1 1 1 1 2 2 2 1 2 2 2 3 3 3 3 3 3 2 2 4 5 7 8 8 9 9 9 9 9 9 9 8 8 8 9 9 9 9 10 10 10
2 1 1 1 2 1 1 2 2 2 2 2 2 3 3 3 3 3 3 2 2 2 3 4 5 6 7 8 9 9 10 10 10 9 9 9 9 10 10 10 10 10 11
3 2 1 1 2 1 1 2 2 2 2 3 3 3 3 3 3 2 2 2 2 2 1 1 2 3 5 7 9 10 10 10 10 10 10 10 10 10 10 10 11 11 11
2 1 1 2 2 1 2 2 2 2 2 2 3 3 4 3 2 2 2 2 2 2 2 2 1 2 4 6 8 9 10 10 10 10 10 10 10 10 11 11 11 12 12
2 2 2 1 2 1 1 2 2 2 2 2 2 3 4 3 2 2 2 2 2 2 2 2 1 1 2 4 7 9 10 10 11 11 11 11 11 11 11 11 12 13 13
1 1 1 1 2 1 2 2 2 1 1 1 1 2 3 3 2 2 1 1 2 2 3 3 3 2 2 2 3 7 10 11 12 12 12 11 12 12 12 13 13 13 13
2 2 1 1 1 1 1 2 2 1 1 1 1 0 1 3 4 2 2 1 2 2 3 3 3 3 3 2 2 5 9 11 12 13 13 13 13 13 13 13 13 14 13
2 2 2 2 2 1 2 2 2 2 2 1 2 1 2 2 2 3 2 2 3 3 3 3 3 3 3 2 3 6 8 10 11 12 13 14 14 14 15 15 15 14 13
3 3 3 2 2 2 2 2 2 2 1 1 1 1 2 2 2 3 4 4 4 3 3 3 3 2 3 3 3 6 9 10 10 11 12 13 14 15 15 15 15 15 13
2 3 3 3 3 2 3 2 1 2 1 2 1 1 1 1 2 3 4 5 4 4 4 3 2 2 3 3 5 8 9 10 11 12 12 13 13 14 15 15 15 14 14
3 4 4 3 3 3 3 3 2 2 2 2 2 2 2 2 2 2 4 4 5 4 3 2 2 2 3 3 4 8 9 10 12 13 13 13 14 14 14 15 14 13 14
3 4 4 4 4 4 4 3 2 3 2 2 2 2 2 3 3 2 3 4 5 5 4 4 2 2 3 4 6 9 6 10 12 13 14 14 14 14 14 14 14 14 14
3 4 4 4 4 4 4 3 2 3 3 2 2 2 2 2 2 3 3 2 4 6 7 4 2 3 3 3 6 6 6 9 12 13 14 14 14 14 14 14 14 14 14
3 4 4 4 4 4 4 3 3 3 3 3 3 3 3 3 3 3 3 3 3 5 7 5 4 4 5 5 7 6 6 10 10 11 12 13 13 14 14 14 14 14 14
4 4 4 4 4 4 4 4 3 3 3 3 3 4 4 4 3 3 3 3 3 4 7 7 5 4 5 5 5 5 5 5 6 10 12 13 13 13 14 14 14 14 14
4 4 4 4 4 4 4 4 4 4 4 4 4 4 5 4 5 4 4 4 4 4 5 8 6 5 5 5 5 6 6 6 5 9 12 12 12 13 13 13 13 12 12
4 4 4 4 4 4 4 4 4 4 4 4 4 4 5 5 5 4 5 5 4 5 4 6 7 5 5 4 5 6 6 5 6 7 10 10 11 12 13 13 12 12 12
4 4 5 4 4 4 4 5 5 4 4 4 4 4 4 4 5 6 5 5 5 5 5 5 6 6 5 4 4 5 6 4 6 6 7 9 10 11 12 12 12 11 11
5 4 5 5 5 4 5 6 5 5 5 5 5 4 5 6 7 6 6 6 6 5 5 5 6 6 5 5 4 4 6 6 6 4 5 6 6 5 6 9 10 11 11
5 5 5 5 5 5 8 10 8 5 5 5 6 5 5 5 7 9 10 10 9 7 7 6 6 7 7 6 5 5 6 6 7 3 4 6 4 6 5 5 10 13 11
5 5 5 5 5 6 10 11 11 6 5 5 5 6 6 6 6 6 8 10 9 10 10 8 8 8 8 7 6 7 6 6 7 5 5 7 4 6 5 7 13 13 11
5 5 5 5 5 7 11 11 11 6 5 5 5 5 6 6 6 8 7 7 7 7 8 7 7 7 7 6 6 7 7 7 6 4 3 6 5 6 6 6 10 12 11
5 5 5 5 5 7 11 12 11 5 5 6 5 5 6 6 10 12 8 8 9 7 9 11 11 10 11 11 8 5 4 4 6 5 3 4 5 6 6 5 7 11 11
5 5 5 5 5 6 10 13 12 5 6 6 5 5 7 9 12 13 8 8 9 8 7 8 8 8 7 7 8 5 4 4 4 5 3 3 4 5 6 4 5 6 7
Wind_Direction
38 34 27 28 335 320 280 276 279 288 296 298 295 292 286 283 279 275 280 266 260 265 280 284 284 285 287 287 289 291 292 293 292 291 288 290 290 290 287 286 283 282 284
38 32 15 11 346 336 330 307 299 301 300 302 299 297 287 279 276 273 266 275 268 266 274 284 287 287 288 289 289 290 291 291 293 293 291 290 289 288 285 283 281 280 282
26 35 16 10 350 341 346 331 322 328 327 317 304 296 289 276 271 274 272 264 267 266 263 273 284 292 296 295 293 293 293 294 295 296 294 293 292 290 287 281 279 279 279
17 26 26 6 350 2 3 337 330 327 313 305 301 294 290 280 271 266 272 277 279 278 267 273 293 300 303 307 306 304 305 305 301 299 298 293 291 291 288 285 284 282 280
15 25 20 0 354 8 15 351 342 333 318 316 302 294 288 280 272 277 282 289 285 286 294 309 298 301 302 305 306 307 307 308 310 309 307 300 290 289 291 290 289 288 285
12 20 16 4 5 20 16 6 346 344 337 324 311 301 286 275 286 289 285 287 289 296 296 293 281 287 293 299 306 309 310 311 313 314 310 308 303 298 294 290 290 289 288
25 30 13 357 358 9 4 358 345 343 348 346 325 309 287 271 282 297 303 313 322 326 310 297 288 285 291 297 301 304 306 308 309 310 309 308 305 301 296 292 289 288 288
14 20 13 358 351 347 352 347 349 347 345 5 332 312 307 302 322 286 305 326 335 339 335 335 326 319 312 304 319 314 311 311 311 309 308 307 303 299 298 296 294 290 288
6 4 360 354 341 342 323 318 322 325 311 291 312 337 299 292 315 301 319 337 335 328 321 324 327 330 331 326 324 326 324 317 312 311 310 308 305 300 298 296 297 294 291
3 4 2 354 340 335 325 317 320 310 306 300 295 291 283 300 302 303 304 313 320 311 304 315 313 312 317 315 331 335 328 320 317 315 315 312 310 306 303 300 299 296 295
358 360 1 359 349 342 342 346 346 337 317 304 296 300 284 290 293 281 292 311 313 304 302 303 303 312 318 322 331 336 329 323 320 316 314 312 310 310 308 305 304 298 296
347 356 358 356 347 340 337 329 327 323 320 312 299 295 285 268 281 275 281 299 301 302 302 304 313 328 325 329 329 329 322 320 321 319 314 312 310 309 309 307 306 303 300
350 354 356 353 347 341 343 345 336 322 320 323 315 315 302 292 298 287 283 293 296 292 287 285 301 310 321 327 320 327 320 322 321 320 318 315 312 310 310 308 304 303 302
348 350 352 352 351 345 344 346 340 331 331 319 320 312 303 305 307 300 292 299 301 293 288 283 293 303 325 319 315 323 317 318 319 319 317 316 313 311 310 310 306 305 305
350 353 348 350 351 346 341 339 342 335 336 324 311 300 295 306 310 305 299 292 286 293 293 290 307 313 310 311 317 318 317 315 317 317 316 313 312 311 310 310 307 305 304
353 351 348 351 347 342 335 333 335 338 335 331 327 321 314 307 305 303 297 294 282 281 286 299 300 306 309 311 314 314 311 317 313 315 316 316 315 314 312 310 309 309 308
350 354 346 342 341 336 331 331 332 336 336 335 335 333 326 324 316 313 310 306 295 291 287 296 299 306 306 309 315 313 308 310 313 317 316 314 315 319 317 314 312 310 310
348 347 341 339 337 335 334 334 334 339 341 335 331 327 320 324 324 322 317 309 305 300 290 295 302 309 307 308 310 311 314 313 309 312 316 315 319 323 321 317 315 316 316
349 351 349 344 340 336 337 338 335 337 336 329 328 325 321 327 321 319 316 309 305 303 296 294 298 304 306 311 312 309 307 305 307 310 314 318 322 323 320 318 317 316 315
354 353 350 345 341 340 343 343 340 337 333 329 328 324 320 319 312 312 309 311 309 305 303 298 298 304 304 308 308 311 311 311 309 310 311 314 317 318 316 317 319 316 314
351 352 354 349 345 343 348 349 343 336 330 327 327 324 322 320 319 317 315 315 313 305 302 298 298 304 305 311 306 306 302 307 306 300 312 312 315 312 315 320 319 315 314
348 351 352 347 343 342 346 347 345 338 334 330 326 326 324 325 327 324 321 319 316 309 305 301 298 298 298 300 302 299 301 306 303 310 319 307 310 304 309 310 310 311 313
345 345 345 345 339 338 344 344 345 340 333 327 325 323 322 325 322 320 320 318 316 310 303 294 290 292 296 300 300 295 293 294 292 299 311 297 300 298 305 305 309 308 311
340 337 335 335 336 340 342 341 340 339 329 326 323 317 316 317 320 324 321 317 313 310 307 304 293 294 297 297 290 290 293 299 297 291 294 286 297 299 306 303 303 306 309
335 333 335 340 340 337 342 341 343 335 327 323 323 323 317 314 321 325 322 314 311 310 313 308 305 306 309 309 307 304 297 296 300 299 304 291 298 307 301 295 301 308 308
332 335 338 339 332 330 338 342 343 333 328 327 325 325 321 322 324 327 322 316 311 313 317 318 316 314 313 310 312 300 284 278 292 291 299 313 303 317 305 297 310 316 312